Regional Weather Roundup
Issued by NWS Newport/Morehead, NC

Current Version | Previous Version | Text Only | Print | Product List | Glossary Off
Versions: 1 2 3 4 5 6 7 8 9 10 11 12 13 14 15 16 17 18 19 20 21 22 23 24 25 26 27 28 29 30 31 32 33 34 35 36 37 38 39 40 41 42 43 44 45 46 47 48 49 50
000 ASUS42 KMHX 181622 RWRMHX WEATHER ROUNDUP FOR EASTERN NORTH CAROLINA NATIONAL WEATHER SERVICE NEWPORT/MOREHEAD CITY NC 1200 PM EDT THU SEP 18 2014 NOTE: "FAIR" INDICATES FEW OR NO CLOUDS BELOW 12,000 FEET WITH NO SIGNIFICANT WEATHER AND/OR OBSTRUCTIONS TO VISIBILITY NCZ015>017-031-032-045>047-102-103-181700- NORTH COAST CITY SKY/WX TMP DP RH WIND PRES REMARKS EDENTON MOSUNNY 76 60 55 NE5 30.01S ELIZABETH CITY SUNNY 75 57 53 E9 30.01S KITTY HAWK SUNNY 74 53 47 N9 30.00S MANTEO SUNNY 74 55 51 NE13 30.01S $$ NCZ045>047-081-094-103-104-181700- CENTRAL COAST CITY SKY/WX TMP DP RH WIND PRES REMARKS FRISCO SUNNY 75 60 59 NE13G21 29.99R SWANQUARTER N/A 77 N/A N/A NE8G15 29.94F $$ NCZ095-097-098-100-101-181700- SOUTHERN COAST CITY SKY/WX TMP DP RH WIND PRES REMARKS BEAUFORT SUNNY 79 65 62 NE12 29.98S CEDAR ISLAND N/A 75 N/A N/A NE21 30.03S JACKSONVILLE SUNNY 79 60 52 E9 29.99R NEWPORT NOT AVBL PINEY ISLAND SUNNY 78 61 55 NE15 29.99S WILMINGTON SUNNY 77 67 71 NE7 29.98R $$ NCZ011>013-027>030-043-044-078>080-089-090>093-098-181700- COASTAL PLAIN CITY SKY/WX TMP DP RH WIND PRES REMARKS AHOSKIE SUNNY 74 59 59 CALM 30.02S CLINTON SUNNY 78 64 62 CALM 30.00S ELIZABETHTOWN PTSUNNY 77 65 66 N5 29.99S GOLDSBORO NOT AVBL GREENVILLE SUNNY 77 61 57 E5 30.02F HAVELOCK MOSUNNY 78 62 57 NE13G21 30.00R KENANSVILLE SUNNY 77 56 47 NE6 30.01S KINSTON SUNNY 77 61 57 E6 30.01S NEW BERN SUNNY 79 60 52 E9 30.00F RICHLANDS SUNNY 79 59 50 NE12 30.00R ROANOKE RAPIDS NOT AVBL ROCKY MOUNT SUNNY 77 59 53 NE5 30.02S WASHINGTON SUNNY 76 60 57 NE6 30.01S WHITEVILLE CLOUDY 76 67 74 CALM 29.98S $$ AMZ130-135-150-152-154-156-158-170-250-252-270-ANZ085-086-088-633-658-670-181700- MARINE OBSERVATIONS STATION/POSITION TIME TEMP WIND PRES WAVE SWELL AIR SEA DIR/SP/G HT/PER HT/PER (UTC) (F) (DEG/KT/KT) (MB) (FT/S) (FT/S) CHESAPEAKE LIGHT 1600 70 50/ 8/ 9 1017.2 BUOY 44014 1600 71 77 30/ 14/ 17 1015.2 5/12 3/12 DUCK 1600 71 75 40/ 11/ 15 1015.6 2E DUCK 1600 N/A 4/12 2/12 OREGON INLET 1600 73 74 10/ 13/ 17 1015.8 BUOY 44095 1600 76 N/A 5/13 3/13 20E OREGON INLET NOT AVBL HATTERAS CG 1600 74 76 30/ 12/ 17 1015.9 DIAMOND BUOY 1600 74 10/ 17/ 21 1014.8 6/11 3/11 CAPE LOOKOUT 1600 75 40/ 16/ 20 1015.2 BEAUFORT LAB 1600 77 78 50/ 9/ 17 1014.7 30 SE NEW RIVER 1600 77 83 50/ 17/ 19 1014.9 5/13 3/13 5 SE WRIGHTSVILL 1600 73 81 40/ 14/ 16 N/A BUOY 41002 1452 79 82 20/ 6/ 8 1014.2 3/11 3/11 BUOY 41004 1600 79 83 10/ 8/ 10 1014.2 3/11 3/11 $$

USA.gov is the U.S. government's official web portal to all federal, state and local government web resources and services.